This demonstration page uses our WeatherBlox Daily Observations layout. Learn more.

Left ArrowRight Arrow

Hourly Observations for September 21, 2015

Temp ( °F °C ) Dew Point ( °F °C ) Humidity (%) Winds ( mph kmh ) Pressure ( in mb ) Visibility ( mi km ) Precip ( " mm )
12:15 am 00:15 Partly Cloudy 64 18 52 11 64 64 N 6 9 30.12 1020 10 16 0.00 0.00
12:35 am 00:35 Partly Cloudy 64 18 52 11 64 64 NNE 5 7 30.12 1020 10 16 0.00 0.00
12:55 am 00:55 Partly Cloudy 64 18 52 11 64 64 N 7 11 30.09 1019 10 16 0.00 0.00
1:15 am 01:15 Clear 63 17 52 11 68 68 N 3 6 30.09 1019 10 16 0.00 0.00
1:35 am 01:35 Clear 63 17 52 11 68 68 NNE 3 6 30.09 1019 10 16 0.00 0.00
1:55 am 01:55 Clear 63 17 50 10 64 64 N 6 9 30.12 1020 10 16 0.00 0.00
2:15 am 02:15 Partly Cloudy 63 17 50 10 64 64 N 6 9 30.12 1020 10 16 0.00 0.00
2:35 am 02:35 Clear 63 17 50 10 64 64 N 6 9 30.12 1020 10 16 0.00 0.00
2:55 am 02:55 Clear 63 17 50 10 64 64 NNE 6 9 30.09 1019 10 16 0.00 0.00
3:15 am 03:15 Clear 61 16 50 10 68 68 NNE 3 6 30.09 1019 10 16 0.00 0.00
3:35 am 03:35 Clear 61 16 52 11 72 72 N 6 9 30.09 1019 10 16 0.00 0.00
3:55 am 03:55 Clear 61 16 52 11 72 72 NNE 5 7 30.09 1019 10 16 0.00 0.00
4:15 am 04:15 Clear 61 16 52 11 72 72 NNE 6 9 30.09 1019 10 16 0.00 0.00
4:35 am 04:35 Clear 61 16 52 11 72 72 N 6 9 30.09 1019 10 16 0.00 0.00
4:55 am 04:55 Clear 61 16 52 11 72 72 NNE 3 6 30.09 1019 10 16 0.00 0.00
5:15 am 05:15 Clear 61 16 52 11 72 72 NNE 5 7 30.09 1019 10 16 0.00 0.00
5:35 am 05:35 Clear 61 16 50 10 68 68 NNE 6 9 30.09 1019 10 16 0.00 0.00
5:55 am 05:55 Clear 61 16 52 11 72 72 NNE 6 9 30.12 1020 10 16 0.00 0.00
6:15 am 06:15 Clear 61 16 52 11 72 72 NNE 7 11 30.12 1020 10 16 0.00 0.00
6:35 am 06:35 Clear 61 16 50 10 68 68 NNE 6 9 30.12 1020 10 16 0.00 0.00
6:55 am 06:55 Clear 61 16 50 10 68 68 NNE 6 9 30.12 1020 10 16 0.00 0.00
7:15 am 07:15 Sunny 61 16 50 10 68 68 N 6 9 30.15 1021 10 16 0.00 0.00
7:35 am 07:35 Sunny 61 16 50 10 68 68 NNE 7 11 30.15 1021 10 16 0.00 0.00
7:55 am 07:55 Sunny 61 16 50 10 68 68 N 5 7 30.15 1021 10 16 0.00 0.00
8:15 am 08:15 Sunny 61 16 52 11 72 72 N 5 7 30.15 1021 10 16 0.00 0.00
8:35 am 08:35 Sunny 61 16 52 11 72 72 NNE 7 11 30.18 1022 10 16 0.00 0.00
8:55 am 08:55 Partly Cloudy 63 17 52 11 68 68 NNE 6 9 30.18 1022 10 16 0.00 0.00
9:15 am 09:15 Mostly Cloudy 63 17 52 11 68 68 N 3 6 30.21 1023 10 16 0.00 0.00
9:35 am 09:35 Mostly Cloudy 63 17 52 11 68 68 NNE 6 9 30.21 1023 10 16 0.00 0.00
9:55 am 09:55 Mostly Cloudy 63 17 52 11 68 68 NNE 6 9 30.21 1023 10 16 0.00 0.00
10:15 am 10:15 Mostly Cloudy 63 17 52 11 68 68 NNE 6 9 30.21 1023 10 16 0.00 0.00
10:35 am 10:35 Cloudy with Drizzle 63 17 52 11 68 68 N 6 9 30.21 1023 10 16 0.00 0.00
10:55 am 10:55 Cloudy 63 17 52 11 68 68 NNE 6 9 30.21 1023 10 16 0.00 0.00
11:15 am 11:15 Cloudy 64 18 52 11 64 64 NNE 5 7 30.21 1023 10 16 0.00 0.00
11:35 am 11:35 Partly Cloudy 64 18 54 12 68 68 NNE 6 9 30.21 1023 10 16 0.00 0.00
11:55 am 11:55 Sunny 64 18 54 12 68 68 NE 6 9 30.21 1023 10 16 0.00 0.00
12:15 pm 12:15 Mostly Cloudy 64 18 54 12 68 68 NNE 5 7 30.21 1023 10 16 0.00 0.00
12:35 pm 12:35 Cloudy with Drizzle 64 18 54 12 68 68 NNE 3 6 30.18 1022 10 16 0.00 0.00
12:55 pm 12:55 Cloudy 64 18 55 13 73 73 NNE 5 7 30.18 1022 10 16 0.00 0.00
1:15 pm 13:15 Cloudy 64 18 55 13 73 73 N 6 9 30.18 1022 10 16 0.00 0.00
1:35 pm 13:35 Cloudy with Light Rain 64 18 55 13 73 73 N 3 6 30.18 1022 10 16 0.00 0.00
1:55 pm 13:55 Cloudy 64 18 55 13 73 73 N 6 9 30.18 1022 10 16 0.00 0.00
2:15 pm 14:15 Cloudy with Light Rain 64 18 57 14 78 78 NNE 3 6 30.18 1022 10 16 0.00 0.00
2:35 pm 14:35 Cloudy with Light Rain 64 18 59 15 83 83 NNE 6 9 30.15 1021 10 16 0.00 0.00
2:55 pm 14:55 Cloudy with Drizzle 64 18 59 15 83 83 Calm 30.18 1022 10 16 0.00 0.00
3:15 pm 15:15 Cloudy 64 18 57 14 78 78 N 8 13 30.15 1021 10 16 0.00 0.00
3:35 pm 15:35 Cloudy 64 18 57 14 78 78 N 6 9 30.15 1021 10 16 0.00 0.00
3:55 pm 15:55 Cloudy 64 18 59 15 83 83 N 7 11 30.15 1021 10 16 0.00 0.00
4:15 pm 16:15 Cloudy 64 18 59 15 83 83 N 6 9 30.18 1022 10 16 0.00 0.00
4:35 pm 16:35 Cloudy 64 18 59 15 83 83 NNE 8 13 30.18 1022 10 16 0.00 0.00
4:55 pm 16:55 Cloudy 64 18 59 15 83 83 NNE 7 11 30.18 1022 10 16 0.00 0.00
5:15 pm 17:15 Cloudy 64 18 59 15 83 83 N 6 9 30.18 1022 10 16 0.00 0.00
5:35 pm 17:35 Cloudy 64 18 59 15 83 83 N 6 9 30.18 1022 10 16 0.00 0.00
5:55 pm 17:55 Cloudy with Light Rain 63 17 59 15 88 88 NNE 6 9 30.18 1022 10 16 0.00 0.00
6:15 pm 18:15 Cloudy with Light Rain 63 17 61 16 94 94 N 5 7 30.18 1022 7 11 0.00 0.00
6:35 pm 18:35 Cloudy with Light Rain 63 17 61 16 94 94 N 7 11 30.18 1022 10 16 0.00 0.00
6:55 pm 18:55 Cloudy with Rain 61 16 61 16 100 100 N 6 9 30.18 1022 7 11 0.00 0.00
7:15 pm 19:15 Cloudy with Light Rain 61 16 61 16 100 100 N 7 11 30.21 1023 10 16 0.00 0.00
7:35 pm 19:35 Cloudy with Light Rain 61 16 61 16 100 100 N 5 7 30.18 1022 10 16 0.00 0.00
7:55 pm 19:55 Cloudy with Light Rain 61 16 61 16 100 100 NNE 5 7 30.21 1023 10 16 0.00 0.00
8:15 pm 20:15 Cloudy with Light Rain 61 16 61 16 100 100 N 5 7 30.21 1023 10 16 0.00 0.00
8:35 pm 20:35 Cloudy with Drizzle 61 16 61 16 100 100 NNE 6 9 30.21 1023 10 16 0.00 0.00
8:55 pm 20:55 Cloudy 61 16 61 16 100 100 NNE 6 9 30.21 1023 10 16 0.00 0.00
9:15 pm 21:15 Cloudy 61 16 61 16 100 100 NNE 6 9 30.21 1023 10 16 0.00 0.00
9:35 pm 21:35 Cloudy with Heavy Rain 59 15 59 15 100 100 N 6 9 30.21 1023 4 6 0.00 0.00
9:55 pm 21:55 Cloudy with Heavy Rain 59 15 59 15 100 100 N 6 9 30.24 1024 3 5 0.00 0.00
10:15 pm 22:15 Cloudy with Rain 59 15 59 15 100 100 N 7 11 30.24 1024 4 6 0.00 0.00
10:35 pm 22:35 Cloudy with Rain 59 15 59 15 100 100 NNE 5 7 30.24 1024 4 6 0.00 0.00
10:55 pm 22:55 Cloudy with Rain 59 15 59 15 100 100 NNE 7 11 30.24 1024 4 6 0.00 0.00
11:15 pm 23:15 Cloudy with Rain 59 15 59 15 100 100 N 7 11 30.24 1024 4 6 0.00 0.00
11:35 pm 23:35 Cloudy with Light Rain 59 15 59 15 100 100 N 7 11 30.24 1024 5 8 0.00 0.00
11:55 pm 23:55 Cloudy with Rain 59 15 59 15 100 100 N 8 13 30.24 1024 5 8 0.00 0.00

Powered by AerisWeather